Hayden, ID

7:52 PM PST on January 18, 2017 (GMT -0800)
Coeur D'Alene

Weather History for KCOE - June, 2013

Change the Weather History Date:

Sunday, June 9, 2013

  Actual Average Record
Temperature  
Mean Temperature 62 °F -  
Max Temperature 73 °F 67 °F 89 °F (2015)
Min Temperature 50 °F 45 °F 37 °F (2011)
Degree Days  
Heating Degree Days 4    
Growing Degree Days 12 (Base 50)    
Moisture  
Dew Point 39 °F    
Average Humidity 45    
Maximum Humidity 71    
Minimum Humidity 19    
Precipitation  
Precipitation 0.00 in - - ()
Sea Level Pressure  
Sea Level Pressure 29.90 in    
Wind  
Wind Speed 8 mph (SW)    
Max Wind Speed 22 mph    
Max Gust Speed 28 mph    
Visibility 10 miles    
Events      
Averages and records for this station are not official NWS values.
T = Trace of Precipitation, MM = Missing Value Source: NWS Daily Summary

Daily Weather History Graph

Daily Weather History Graph

Search for Another Location

Airport or City:

Trip Planner

Search our weather history database for the weather conditions in past years. The results will help you decide how hot, cold, wet, or windy it might be!

Date:

Astronomy

Jun. 09, 2013 Rise Set
Actual Time 4:49 AM PDT 8:44 PM PDT
Civil Twilight 4:08 AM PDT 9:24 PM PDT
Nautical Twilight 3:13 AM PDT 10:20 PM PDT
Astronomical Twilight 1:46 AM PDT 11:48 PM PDT
Moon 5:54 AM PDT (6/9) 9:28 PM PDT (6/9)
Length of Visible Light 17h 16m
Length of Day
15h 55m
New Moon, 1% of the Moon is Illuminated
Jun 9
New Moon
Jun 16
First Quarter
Jun 23
Full
Jun 29
Last Quarter
Jul 8
New

Hourly Weather History & Observations

Time (PDT) Temp. Dew Point Humidity Pressure Visibility Wind Dir Wind Speed Gust Speed Precip Events Conditions
12:15 AM 57.2 °F 42.8 °F 59% 29.92 in 10.0 mi SSW 3.5 mph - N/A   Clear
12:35 AM 57.2 °F 44.6 °F 63% 29.92 in 10.0 mi South 8.1 mph - N/A   Clear
12:55 AM 57.2 °F 44.6 °F 63% 29.92 in 10.0 mi South 6.9 mph - N/A   Clear
1:15 AM 57.2 °F 44.6 °F 63% 29.92 in 10.0 mi Calm Calm - N/A   Clear
1:35 AM 57.2 °F 44.6 °F 63% 29.91 in 10.0 mi SSE 8.1 mph - N/A   Clear
1:55 AM 57.2 °F 44.6 °F 63% 29.90 in 10.0 mi SSE 6.9 mph - N/A   Clear
2:15 AM 57.2 °F 42.8 °F 59% 29.90 in 10.0 mi SSE 9.2 mph - N/A   Clear
2:35 AM 57.2 °F 44.6 °F 63% 29.90 in 10.0 mi SSE 9.2 mph - N/A   Clear
2:55 AM 55.4 °F 44.6 °F 67% 29.91 in 10.0 mi South 10.4 mph - N/A   Clear
3:15 AM 55.4 °F 42.8 °F 63% 29.91 in 10.0 mi South 8.1 mph - N/A   Clear
3:35 AM 55.4 °F 42.8 °F 63% 29.91 in 10.0 mi South 8.1 mph - N/A   Clear
3:55 AM 55.4 °F 42.8 °F 63% 29.91 in 10.0 mi South 6.9 mph - N/A   Clear
4:15 AM 55.4 °F 42.8 °F 63% 29.92 in 10.0 mi South 4.6 mph - N/A   Clear
4:35 AM 51.8 °F 42.8 °F 71% 29.92 in 10.0 mi West 6.9 mph - N/A   Clear
4:55 AM 51.8 °F 41.0 °F 67% 29.92 in 10.0 mi SE 4.6 mph - N/A   Clear
5:15 AM 51.8 °F 41.0 °F 67% 29.93 in 2.0 mi Calm Calm - N/A   Clear
5:35 AM 53.6 °F 42.8 °F 67% 29.92 in 10.0 mi West 3.5 mph - N/A   Clear
5:55 AM 53.6 °F 42.8 °F 67% 29.93 in 10.0 mi Calm Calm - N/A   Clear
6:15 AM 55.4 °F 42.8 °F 63% 29.93 in 10.0 mi SSW 4.6 mph - N/A   Clear
6:35 AM 55.4 °F 41.0 °F 58% 29.93 in 10.0 mi SW 3.5 mph - N/A   Clear
6:55 AM 57.2 °F 42.8 °F 59% 29.93 in 10.0 mi WSW 5.8 mph - N/A   Clear
7:15 AM 57.2 °F 42.8 °F 59% 29.93 in 10.0 mi West 4.6 mph - N/A   Clear
7:35 AM 59.0 °F 42.8 °F 55% 29.93 in 10.0 mi West 6.9 mph - N/A   Clear
7:55 AM 59.0 °F 42.8 °F 55% 29.93 in 10.0 mi West 6.9 mph - N/A   Clear
8:15 AM 60.8 °F 42.8 °F 52% 29.94 in 10.0 mi West 5.8 mph - N/A   Clear
8:35 AM 60.8 °F 42.8 °F 52% 29.93 in 10.0 mi West 6.9 mph - N/A   Clear
8:55 AM 60.8 °F 42.8 °F 52% 29.93 in 10.0 mi Calm Calm - N/A   Clear
9:15 AM 62.6 °F 44.6 °F 52% 29.93 in 10.0 mi SW 5.8 mph - N/A   Clear
9:35 AM 64.4 °F 44.6 °F 49% 29.93 in 10.0 mi WSW 5.8 mph - N/A   Clear
9:55 AM 66.2 °F 44.6 °F 46% 29.93 in 10.0 mi SSW 11.5 mph 17.3 mph N/A   Clear
10:15 AM 66.2 °F 42.8 °F 43% 29.93 in 10.0 mi SW 12.7 mph 16.1 mph N/A   Partly Cloudy
10:35 AM 66.2 °F 39.2 °F 37% 29.93 in 10.0 mi WSW 18.4 mph 21.9 mph N/A   Clear
10:55 AM 68.0 °F 41.0 °F 37% 29.93 in 10.0 mi West 15.0 mph 26.5 mph N/A   Clear
11:15 AM 68.0 °F 39.2 °F 35% 29.93 in 10.0 mi SW 15.0 mph 23.0 mph N/A   Clear
11:35 AM 68.0 °F 41.0 °F 37% 29.93 in 10.0 mi SW 16.1 mph 27.6 mph N/A   Clear
11:55 AM 68.0 °F 41.0 °F 37% 29.93 in 10.0 mi SSW 16.1 mph 23.0 mph N/A   Clear
12:15 PM 69.8 °F 41.0 °F 35% 29.93 in 10.0 mi SSW 13.8 mph 19.6 mph N/A   Clear
12:35 PM 71.6 °F 39.2 °F 31% 29.93 in 10.0 mi SW 15.0 mph 18.4 mph N/A   Clear
12:55 PM 71.6 °F 39.2 °F 31% 29.92 in 10.0 mi WSW 21.9 mph 26.5 mph N/A   Clear
1:15 PM 71.6 °F 37.4 °F 29% 29.92 in 10.0 mi WSW 16.1 mph 23.0 mph N/A   Clear
1:35 PM 71.6 °F 37.4 °F 29% 29.91 in 10.0 mi SW 17.3 mph 23.0 mph N/A   Clear
1:55 PM 73.4 °F 35.6 °F 25% 29.91 in 10.0 mi West 12.7 mph 20.7 mph N/A   Clear
2:15 PM 73.4 °F 33.8 °F 23% 29.91 in 10.0 mi WSW 13.8 mph 20.7 mph N/A   Clear
2:35 PM 73.4 °F 32.0 °F 22% 29.91 in 10.0 mi WSW 17.3 mph 24.2 mph N/A   Clear
2:55 PM 73.4 °F 30.2 °F 20% 29.90 in 10.0 mi West 18.4 mph 24.2 mph N/A   Clear
3:15 PM 73.4 °F 32.0 °F 22% 29.90 in 10.0 mi WSW 16.1 mph - N/A   Clear
3:35 PM 73.4 °F 32.0 °F 22% 29.90 in 10.0 mi West 10.4 mph - N/A   Clear
3:55 PM 73.4 °F 32.0 °F 22% 29.89 in 10.0 mi WSW 12.7 mph 21.9 mph N/A   Clear
4:15 PM 73.4 °F 32.0 °F 22% 29.89 in 10.0 mi WSW 11.5 mph 17.3 mph N/A   Clear
4:35 PM 73.4 °F 28.4 °F 19% 29.89 in 10.0 mi WSW 11.5 mph - N/A   Clear
4:55 PM 73.4 °F 28.4 °F 19% 29.88 in 10.0 mi SW 16.1 mph - N/A   Clear
5:15 PM 73.4 °F 30.2 °F 20% 29.88 in 10.0 mi West 12.7 mph 17.3 mph N/A   Clear
5:35 PM 73.4 °F 28.4 °F 19% 29.88 in 10.0 mi SW 11.5 mph 19.6 mph N/A   Clear
5:55 PM 73.4 °F 32.0 °F 22% 29.87 in 10.0 mi West 13.8 mph 19.6 mph N/A   Clear
6:15 PM 71.6 °F 30.2 °F 22% 29.87 in 10.0 mi SW 12.7 mph 17.3 mph N/A   Clear
6:35 PM 71.6 °F 30.2 °F 22% 29.87 in 10.0 mi WSW 8.1 mph - N/A   Clear
6:55 PM 71.6 °F 30.2 °F 22% 29.87 in 10.0 mi West 8.1 mph - N/A   Clear
7:15 PM 69.8 °F 33.8 °F 27% 29.86 in 10.0 mi WSW 5.8 mph - N/A   Clear
7:35 PM 66.2 °F 37.4 °F 35% 29.86 in 10.0 mi SW 6.9 mph - N/A   Clear
7:55 PM 64.4 °F 39.2 °F 40% 29.86 in 10.0 mi Calm Calm - N/A   Clear
8:15 PM 62.6 °F 41.0 °F 45% 29.85 in 10.0 mi SW 4.6 mph - N/A   Clear
8:35 PM 60.8 °F 37.4 °F 42% 29.85 in 10.0 mi SW 4.6 mph - N/A   Clear
8:55 PM 60.8 °F 35.6 °F 39% 29.85 in 10.0 mi South 5.8 mph - N/A   Clear
9:15 PM 60.8 °F 35.6 °F 39% 29.86 in 10.0 mi South 5.8 mph - N/A   Clear
9:35 PM 59.0 °F 35.6 °F 42% 29.86 in 10.0 mi Calm Calm - N/A   Clear
9:55 PM 55.4 °F 35.6 °F 47% 29.86 in 10.0 mi Calm Calm - N/A   Clear
10:15 PM 55.4 °F 35.6 °F 47% 29.86 in 10.0 mi SSE 5.8 mph - N/A   Clear
10:35 PM 50.0 °F 35.6 °F 58% 29.86 in 10.0 mi Calm Calm - N/A   Clear
10:55 PM 53.6 °F 39.2 °F 58% 29.86 in 10.0 mi ESE 4.6 mph - N/A   Clear
11:15 PM 57.2 °F 39.2 °F 51% 29.87 in 10.0 mi SSE 4.6 mph - N/A   Clear
11:35 PM 55.4 °F 37.4 °F 51% 29.87 in 10.0 mi Calm Calm - N/A   Clear
11:55 PM 53.6 °F 37.4 °F 54% 29.87 in 10.0 mi Calm Calm - N/A   Clear